Aeroporto :







RITROVATECI SU...

 
LOGIN :

Iscrizione | Disclaimer

   EN    FR    IT 

 









Sommario :    VFR   VFR Marginale   IFR   IFR Intensivo   IFR Molto Intensivo
Visibilità : 
Base nubi : 
>= 8 km
>= 3000ft
5 / 8 km
1000 / 3000 ft
1500m / 5 km
500 / 1000 ft
800 / 1500m
200 / 500 ft
< 800m
< 200 ft
Simboli :   Temporali  Nebbia  Neve Forte  Precipitazioni Forti  Vento > 20 kt






- Altitudine del aeroporto : 13 ft
- Codice IATA : SXM


TNCM - Princess Juliana Int.

ULTIMO METAR :
  • 292300Z 08010KT 9999 FEW018 28/25 Q1013 NOSIG

METARs OBSOLETI :
  • 292200Z 08011KT 9999 -SHRA SCT017 28/25 Q1013 NOSIG
  • 292100Z 08013KT 9999 FEW018 28/23 Q1012 NOSIG

TAF TNCM
Valido dal 29 a 18 ore il 30 a 18 ore UTC


291720Z 2918/3018 09015KT P6SM VCSH SCT018
FIR TJZS / America del Nord



MetMap, La meteo Aeronautica in un colpo d'occhio ! - Copyright ORBIFLY Dicembre 2007 - Disclaimer

ORBIFLY MET'MAP TEAM :

Programmazione e sviluppo : Alexandra Zaïnal
Concezione : Baudouin d'Aumeries
Aiuto per la programmazione : Marc-Olivier Méhu
Supporto tecnico e logistico : Manuel Goepfert
Aiuto per la traduzione : Arnaldo La Scala

Contatto : metmap@orbifly.com




FONTI E CREDITI :

   NOAA